Retour au catalogue

CZ-4C DEB

ActifSSO
NORAD 44616·DEBRIS·🇨🇳 China

Lancé Mar 31, 2018 depuis Taiyuan Satellite Launch Center

Loading…

Prochains Passages (prochaines 24 heures)

TLE

VieillissantSource: Space-Track

Époque: Sep 10, 2026, 11:10 UTC

1 44616U 18031K   26253.46536279  .00003353  00000-0  29607-3 0  9995
2 44616  97.7948 338.0544 0005353  23.5271 336.6195 14.97047451438976

Suivez CZ-4C DEB en temps réel avec AllMySat

Download on the App Store